MOREHEAD/NEWPORT, NC

10:25 PM EDT on May 24, 2017 (GMT -0400)
Cherry Ln | | Change Station
Active Advisory: Beach Hazard Statement

Elev 29 ft 34.78 °N, 76.89 °W | Updated 17 seconds ago

Rain
Rain
71.5 °F
Feels Like 71.5 °F
N
2.0
Wind Variable Wind from South

Today
High -- | Low -- °F
--% Chance of Precip.
Yesterday
High -- | Low -- °F
Precip. -- in
Pressure 29.63 in
Visibility 10.0 miles
Clouds Scattered Clouds 12000 ft
Dew Point 68 °F
Humidity 90%
Rainfall 0.07 in
Snow Depth Not available.
5:58 AM 8:10 PM
Waning Crescent, 1% visible
METAR KNKT 250154Z 18009G19KT 10SM SCT120 22/19 A2964 RMK AO2 RAB11E48 SLP034 P0001 T02220194
Pressure 29.63 in
Visibility 10.0 miles
Clouds Scattered Clouds 12000 ft
Dew Point 68 °F
Humidity 90%
Rainfall 0.07 in
Snow Depth Not available.
5:58 AM 8:10 PM
Waning Crescent, 1% visible
METAR KNKT 250154Z 18009G19KT 10SM SCT120 22/19 A2964 RMK AO2 RAB11E48 SLP034 P0001 T02220194

Get Your Daily Forecast Email!

Thanks for signing up!

Be on the lookout for a verification email in your inbox.

You'll start receiving severe weather alerts in your inbox..

×

10-Day Weather Forecast

Almanac

Astronomy

May. 24, 2017 Rise Set
Actual Time
Civil Twilight
Nautical Twilight
Astronomical Twilight
Moon
Length of Visible Light
Length of Day
Tomorrow will be .
, % of the Moon is Illuminated

Today's Extremes

State Highs State Lows

Community

WunderPhotos

Category 6

Welcome to Category 6. This is the collective home for Weather Underground's featured writeups by Dr. Jeff Masters (right), Bob Henson (left), Chris Burt, and other regular contributors.

Nearby

Air Quality

  Air Quality AQ Index Pollutant
Not available.

Snow Depth

Station Depth Elevation

Earthquake Activity

City Distance Mag. Time & Date
Minimum magnitude displayed is 2.5.

Coastal Water Temperatures

Place Temperature

Stations

Nearby Weather Stations

Station Location Temp. Windchill Dew Point Humidity Wind Precip. Elev Updated Type
                   

Watches & Warnings

Beach Hazard Statement
Issued: 4:13 PM EDT May. 24, 2017 – National Weather Service

... Beach hazards statement now in effect through Thursday
evening...

* hazards... high risk of rip currents.

* Location... Cape Hatteras south.

* Timing and tides... the most likely time for strong rip currents
to occur is a couple hours either side of low tide, which will
occur around 2 PM Thursday.

* Surf height... 5 to 8 feet south of Cape Hatteras.

Precautionary/preparedness actions...

If caught in a rip current remain calm. Don't fight the current.
Swim in a direction following the shoreline. When out of the
current, swim back to shore. If tired, float or tread water until
out of the rip current. If unable to escape, face the shore and
call or wave for help.